This demonstration page uses our WeatherBlox Daily Observations layout. Learn more.

Left ArrowRight Arrow

Hourly Observations for May 15, 2021

Temp ( °F °C ) Dew Point ( °F °C ) Humidity (%) Winds ( mph kmh ) Pressure ( in mb ) Visibility ( mi km ) Precip ( " mm )
12:15 am 00:15 Cloudy 48 9 43 6.1 82 82 W 5 7 30.28 1026 10 16 0.00 0.00
12:35 am 00:35 Cloudy 50 10 44 6.4 79 79 Calm 30.28 1025 10 16 0.00 0.00
12:55 am 00:55 Mostly Cloudy 50 10 44 6.7 80 80 Calm 30.28 1025 10 16 0.00 0.00
1:15 am 01:15 Mostly Cloudy 50 10.1 44 6.5 79 79 Calm 30.28 1025 10 16 0.00 0.00
1:35 am 01:35 Cloudy 49 9.5 43 6.3 81 81 Calm 30.28 1025 10 16 0.00 0.00
1:55 am 01:55 Mostly Cloudy 50 9.8 45 7 83 83 Calm 30.28 1025 10 16 0.00 0.00
2:15 am 02:15 Cloudy 49 9.7 46 7.5 86 86 Calm 30.28 1025 10 16 0.00 0.00
2:35 am 02:35 Mostly Cloudy 48 8.9 43 6.3 84 84 Calm 30.28 1026 10 16 0.00 0.00
2:55 am 02:55 Partly Cloudy 49 9.2 45 7.2 87 87 Calm 30.27 1025 10 16 0.00 0.00
3:15 am 03:15 Partly Cloudy 48 9 45 7 87 87 Calm 30.27 1025 10 16 0.00 0.00
3:35 am 03:35 Clear 47 8.2 44 6.5 89 89 Calm 30.28 1025 10 16 0.00 0.00
3:55 am 03:55 Clear 46 8 44 6.7 92 92 Calm 30.27 1025 10 16 0.00 0.00
4:15 am 04:15 Clear 46 7.5 44 6.5 93 93 Calm 30.28 1025 10 16 0.00 0.00
4:35 am 04:35 Clear 45 7.2 41 5 86 86 Calm 30.28 1025 10 16 0.00 0.00
4:55 am 04:55 Clear 45 7.1 42 5.3 88 88 Calm 30.28 1025 10 16 0.00 0.00
5:15 am 05:15 Clear 44 6.4 41 5.1 92 92 Calm 30.28 1026 10 16 0.00 0.00
5:35 am 05:35 Clear 43 6.1 41 4.9 92 92 Calm 30.30 1026 10 16 0.00 0.00
5:55 am 05:55 Clear 43 6.2 41 4.9 91 91 S 3 6 30.29 1026 10 16 0.00 0.00
6:15 am 06:15 Clear 42 5.6 40 4.5 93 93 Calm 30.31 1026 10 16 0.00 0.00
6:35 am 06:35 Sunny 43 6 40 4.7 91 91 Calm 30.31 1026 10 16 0.00 0.00
6:55 am 06:55 Sunny 43 6.1 41 4.8 91 91 Calm 30.31 1026 10 16 0.00 0.00
7:15 am 07:15 Sunny 44 6.5 42 5.4 93 93 Calm 30.31 1027 10 16 0.00 0.00
7:35 am 07:35 Sunny 47 8.1 42 5.8 86 86 E 3 6 30.30 1026 10 16 0.00 0.00
7:55 am 07:55 Sunny 49 9.5 42 5.8 78 78 Calm 30.30 1026 10 16 0.00 0.00
8:15 am 08:15 Sunny 51 10.8 42 5.8 71 71 Calm 30.29 1026 10 16 0.00 0.00
8:35 am 08:35 Sunny 55 12.6 43 5.9 64 64 S 3 6 30.29 1026 10 16 0.00 0.00
8:55 am 08:55 Sunny 56 13.6 44 6.5 62 62 SSE 3 6 30.29 1026 10 16 0.00 0.00
9:15 am 09:15 Sunny 59 14.9 40 4.7 51 51 SSE 3 6 30.28 1026 10 16 0.00 0.00
9:35 am 09:35 Sunny 61 16 40 4.6 47 47 Calm 30.28 1025 10 16 0.00 0.00
9:55 am 09:55 Sunny 63 17 39 3.8 42 42 SSE 3 6 30.28 1025 10 16 0.00 0.00
10:15 am 10:15 Sunny 64 17.9 36 2.2 35 35 S 6 9 30.27 1025 10 16 0.00 0.00
10:35 am 10:35 Sunny 65 18.2 34 1.3 32 32 S 5 7 30.27 1025 10 16 0.00 0.00
10:55 am 10:55 Sunny 65 18.6 35 1.5 32 32 S 7 11 30.27 1025 10 16 0.00 0.00
11:15 am 11:15 Sunny 66 18.9 33 0.6 29 29 S 8 13 30.27 1025 10 16 0.00 0.00
11:35 am 11:35 Sunny 67 19.2 33 0.4 28 28 S 10 17 30.27 1025 10 16 0.00 0.00
11:55 am 11:55 Sunny 68 19.8 34 0.9 28 28 SSW 12 19 30.27 1025 10 16 0.00 0.00
12:15 pm 12:15 Sunny 67 19.7 33 0.8 28 28 SSW 12 19 30.26 1025 10 16 0.00 0.00
12:35 pm 12:35 Sunny 68 19.9 33 0.5 27 27 SSE 7 11 30.26 1025 10 16 0.00 0.00
12:55 pm 12:55 Sunny 68 20.1 33 0.6 27 27 SSW 10 17 30.25 1024 10 16 0.00 0.00
1:15 pm 13:15 Partly Cloudy 68 19.9 33 0.5 27 27 SE 8 13 30.24 1024 10 16 0.00 0.00
1:35 pm 13:35 Partly Cloudy 70 20.9 35 1.7 28 28 SSW 8 13 30.23 1024 10 16 0.00 0.00
1:55 pm 13:55 Partly Cloudy 69 20.3 34 1.3 28 28 SW 8 13 30.22 1023 10 16 0.00 0.00
2:15 pm 14:15 Partly Cloudy 69 20.3 34 1.1 28 28 SSW 9 15 30.22 1023 10 16 0.00 0.00
2:35 pm 14:35 Partly Cloudy 68 20.2 32 0.2 26 26 SSE 6 9 30.22 1023 10 16 0.00 0.00
2:55 pm 14:55 Partly Cloudy 69 20.6 33 0.7 27 27 S 8 13 30.20 1023 10 16 0.00 0.00
3:15 pm 15:15 Partly Cloudy 68 20.1 33 0.7 27 27 S 5 7 30.21 1023 10 16 0.00 0.00
3:35 pm 15:35 Partly Cloudy 68 20.2 33 0.8 28 28 SW 6 9 30.21 1023 10 16 0.00 0.00
3:55 pm 15:55 Partly Cloudy 68 20 34 1 28 28 S 7 11 30.20 1023 10 16 0.00 0.00
4:15 pm 16:15 Mostly Cloudy 67 19.7 35 1.9 31 31 SW 7 11 30.20 1023 10 16 0.00 0.00
4:35 pm 16:35 Cloudy with Light Rain 67 19.5 37 2.6 33 33 WSW 9 15 30.19 1022 10 16 0.00 0.00
4:55 pm 16:55 Cloudy 66 19.1 38 3.1 35 35 SSW 9 15 30.19 1022 10 16 0.00 0.00
5:15 pm 17:15 Cloudy 67 19.2 37 2.7 34 34 SSW 5 7 30.19 1022 10 16 0.00 0.00
5:35 pm 17:35 Cloudy 66 19 38 3.3 35 35 SSW 3 6 30.18 1022 10 16 0.00 0.00
5:55 pm 17:55 Cloudy 66 19 35 1.9 32 32 Calm 30.17 1022 10 16 0.00 0.00
6:15 pm 18:15 Cloudy 66 19.1 36 2 32 32 Calm 30.17 1022 10 16 0.00 0.00
6:35 pm 18:35 Cloudy 67 19.3 36 2.1 32 32 S 7 11 30.17 1022 10 16 0.00 0.00
6:55 pm 18:55 Cloudy 65 18.1 39 4.1 40 40 W 7 11 30.18 1022 10 16 0.00 0.00
7:15 pm 19:15 Cloudy 65 18.1 37 2.7 36 36 S 8 13 30.18 1022 10 16 0.00 0.00
7:35 pm 19:35 Cloudy 64 17.9 38 3.2 38 38 Calm 30.17 1022 10 16 0.00 0.00
7:55 pm 19:55 Cloudy 64 17.9 38 3.3 38 38 Calm 30.17 1022 10 16 0.00 0.00
8:15 pm 20:15 Cloudy 64 17.8 37 2.5 36 36 Calm 30.17 1022 10 16 0.00 0.00
8:35 pm 20:35 Cloudy 64 17.5 38 3.4 39 39 Calm 30.17 1022 10 16 0.00 0.00
8:55 pm 20:55 Cloudy 63 17 39 3.8 42 42 ENE 5 7 30.17 1022 10 16 0.00 0.00
9:15 pm 21:15 Cloudy with Light Rain 62 16.6 39 4.1 44 44 N 3 6 30.17 1022 10 16 0.00 0.00
9:35 pm 21:35 Cloudy with Light Rain 62 16.9 38 3.6 41 41 S 5 7 30.18 1022 10 16 0.00 0.00
9:55 pm 21:55 Cloudy 61 16.1 42 5.3 49 49 Calm 30.18 1022 10 16 0.00 0.00
10:15 pm 22:15 Cloudy 62 16.4 39 3.8 43 43 Calm 30.18 1022 10 16 0.00 0.00
10:35 pm 22:35 Cloudy 61 15.9 42 5.7 51 51 Calm 30.18 1022 10 16 0.00 0.00
10:55 pm 22:55 Cloudy 59 15.1 43 6.2 56 56 Calm 30.18 1022 10 16 0.00 0.00
11:15 pm 23:15 Partly Cloudy 58 14.7 43 6.3 57 57 Calm 30.18 1022 10 16 0.00 0.00
11:35 pm 23:35 Clear 58 14.2 45 7.2 63 63 E 3 6 30.19 1022 10 16 0.00 0.00
11:55 pm 23:55 Mostly Cloudy 56 13.3 46 7.6 69 69 Calm 30.19 1022 10 16 0.00 0.00

Powered by AerisWeather